Tracking 19562 objects as of 22-Mar-2019
HD Live streaming from Space Station
objects crossing your sky now

COSMOS 2159

Track COSMOS 2159 now!
10-day predictions
COSMOS 2159 is classified as:


NORAD ID: 21730
Int'l Code: 1991-068C
Perigee: 1,394.6 km
Apogee: 1,416.5 km
Inclination: 82.6 °
Period: 113.7 minutes
Semi major axis: 7776 km
RCS: 1.1647 m2 (large)
Launch date: September 28, 1991
Source: Commonwealth of Independent States (former USSR) (CIS)
Launch site: PLESETSK MISSILE AND SPACE COMPLEX (PKMTR)
aabbcc
Your satellite tracking list
Your tracking list is empty




NASA's NSSDC Master Catalog

Two Line Element Set (TLE):
1 21730U 91068C   19079.80118990 +.00000021 +00000-0 +52124-4 0  9990
2 21730 082.5868 178.7359 0014069 185.1493 343.4186 12.65968671269493
Source of the keplerian elements: AFSPC